AirNav   ProFlight Series 2 Aviation Headset
 
 863 users online  

2FL1 Broward County Civic Arena Heliport
Sunrise, Florida, USA

GOING TO SUNRISE?


FAA INFORMATION EFFECTIVE 16 JULY 2020

Location

FAA Identifier: 2FL1
Lat/Long: 26-09-34.9600N 080-19-33.3300W
26-09.582667N 080-19.555500W
26.1597111,-80.3259250
(estimated)
Elevation: 10 ft. / 3 m (estimated)
Variation: 04W (1995)
Time zone: UTC -4 (UTC -5 during Standard Time)
Zip code: 33323

Heliport Operations

Heliport use: Private use. Permission required prior to landing
Activation date: 02/1999
Control tower: no
ARTCC: MIAMI CENTER
FSS: MIAMI FLIGHT SERVICE STATION
Attendance: UNATNDD
Wind indicator: lighted
Segmented circle: no
Lights: SS-SR

Heliport Communications

WX ASOS at FXE (9 nm E): PHONE 954-772-2537
WX ASOS at HWO (11 nm SE): PHONE 954-983-5904
WX ASOS at FLL (11 nm SE): PHONE 954-359-7857
WX ASOS at PMP (13 nm NE): PHONE 954-783-3720
WX ASOS at OPF (15 nm S): 125.9 (305-681-4063)
WX AWOS-3 at BCT (18 nm NE): 121.125 (561-391-2696)

Nearby radio navigation aids

VOR radial/distance  VOR name  Freq  Var
FLLr307/10.0FORT LAUDERDALE VOR/DME114.4006W
DHPr007/21.6DOLPHIN VORTAC113.9004W
VKZr343/26.2VIRGINIA KEY VOR/DME117.1004W
PBIr205/33.8PALM BEACH VORTAC115.7003W

Heliport Services

Runway Information

Helipad H1

Dimensions: 42 x 42 ft. / 13 x 13 m
FINAL APCH & LNDG AREA MEASURES 76 FT BY 76 FT.
Surface: asphalt
Latitude: 26-09.582667N
Longitude: 080-19.555500W
Elevation: 10.0 ft.
Traffic pattern: leftleft
Approach lights: NSTD
5 FLUSH, IN-GROUND LOW INTST RED LGTS ON APCH ROUTE.

Heliport Ownership and Management from official FAA records

Ownership: Privately-owned
Owner: BROWARD COUNTY
115 NORTH ANDREWS AVENUE
FORT LAUDERDALE, FL 33301
Phone 954-357-6222
Manager: TIM OWENS
2555 PANTHER PKWY
SUNRISE, FL 33323
Phone 954-835-8420
JOHN POKRYFKE 2200 SW 45TH ST, SUITE 101 DANIA BEACH, FL 33312 954-359-1214

Instrument Procedures

There are no published instrument procedures at 2FL1.

Some nearby airports with instrument procedures:

KFXE - Fort Lauderdale Executive Airport (9 nm E)
KHWO - North Perry Airport (11 nm SE)
KFLL - Fort Lauderdale/Hollywood International Airport (11 nm SE)
KPMP - Pompano Beach Airpark (13 nm NE)
KOPF - Miami-Opa Locka Executive Airport (15 nm S)
KBCT - Boca Raton Airport (18 nm NE)
 
Loc | Ops | Rwys | IFR | FBO | Links
Com | Nav | Svcs | Stats | Notes


 
Area around 2FL1 (Broward County Civic Arena Heliport)
 
Road maps at: MapQuest Bing Google
 
Aerial photo
No photo
 
Sectional chart

 
Airport distance calculator
Flying to Broward County Civic Arena Heliport? Find the distance to fly.

From to 2FL1

Sunrise and sunset
Times for 12-Aug-2020
 Local
(UTC-4)
 Zulu
(UTC)
Morning civil twilight06:3010:30
Sunrise06:5410:54
Sunset19:5823:58
Evening civil twilight20:2300:23

Current date and time
Zulu (UTC)  13-Aug-2020 03:35:04
Local (UTC-4)  12-Aug-2020 23:35:04
 
METAR
KFXE 
8nm E 
130253Z 10004KT 10SM SCT021 29/26 A3004 RMK AO2 SLP174 T02890256 51020
KHWO 
11nm SE 
130253Z AUTO 11006KT 10SM FEW024 29/26 A3005 RMK AO2 SLP176 T02940256 51020
KFLL 
11nm SE 
130253Z 13008KT 10SM SCT024 SCT160 BKN250 30/26 A3003 RMK AO2 SLP169 FRQ LTGICCA DSNT SE CB DSNT SE T03000256 51019
KPMP 
12nm NE 
130253Z AUTO 11007KT 10SM SCT022 A3004 RMK AO2 SLP175 51020 $
KOPF 
15nm S 
130253Z 12005KT 10SM FEW025 28/24 A3004 RMK AO2 SLP175 T02830239 51021
KBCT 
18nm NE 
130247Z 13006KT 10SM SCT025 29/26 A3004 RMK LAST
TAF
KFXE 
8nm E 
122109Z 1221/1318 11008KT P6SM VCSH SCT025 SCT150 FM130200 VRB03KT P6SM FEW020 FM131300 11007KT P6SM VCTS SCT025CB BKN050 FM131700 12010KT P6SM SCT035
KFLL 
11nm SE 
122109Z 1221/1324 10008KT P6SM VCSH SCT025 SCT150 FM130200 VRB03KT P6SM FEW020 FM131300 11007KT P6SM VCTS SCT025CB BKN050 FM131700 12010KT P6SM SCT035
KOPF 
15nm S 
122109Z 1221/1318 13008KT P6SM SCT025 SCT150 FM130200 VRB03KT P6SM FEW020 FM131300 11007KT P6SM VCTS SCT025CB BKN050 FM131700 12010KT P6SM SCT035
NOTAMs
Click for the latest NOTAMs
NOTAMs are issued by the DoD/FAA and will open in a separate window not controlled by AirNav.

 

 
 

Would you like to see your business listed on this page?

 If your business provides an interesting product or service to pilots, flight crews, aircraft, or users of the Broward County Civic Arena Heliport, you should consider listing it here.  To start the listing process, click on the button below
 
Add a business
 

Other Pages about Broward County Civic Arena Heliport

Update a link
 
Copyright © AirNav, LLC. All rights reserved. Privacy Policy  Contact